Wind_Speed
71 68 58 55 52 53 53 52 51 46 46 47 52 56 60 61 60 61 61 60 60 77 89 91 90 91 90 90 84 86 80 73 81 81 80 76 73 71 67 67 68 63 65 70 70
75 71 63 60 62 60 54 51 52 50 47 49 52 55 60 64 65 65 64 64 65 65 87 94 95 93 93 89 89 85 80 78 80 84 81 74 78 76 73 70 67 65 64 65 66
74 70 70 65 62 61 57 52 52 48 46 48 53 57 59 64 68 67 70 70 69 69 70 93 100 97 95 93 89 88 81 82 82 80 83 76 82 78 76 72 72 68 65 66 63
77 73 72 68 65 63 61 54 50 49 45 46 52 57 61 63 69 73 75 75 75 71 73 72 95 101 99 95 91 90 89 88 85 81 80 81 82 73 74 75 73 69 68 68 66
79 77 79 73 68 67 64 59 52 49 46 47 49 55 60 61 68 75 77 78 77 78 74 76 75 89 105 101 99 92 93 91 89 84 86 86 81 78 80 70 72 65 70 67 62
80 83 84 77 78 73 66 58 54 51 48 45 47 51 55 56 73 74 82 81 81 82 82 76 75 75 86 108 100 98 96 96 92 88 90 87 85 83 80 77 80 73 75 68 68
85 89 87 84 84 75 68 62 56 51 50 46 45 47 49 62 71 76 80 84 85 84 86 84 79 81 76 83 108 98 93 96 94 93 93 89 85 82 85 84 83 78 77 75 73
91 94 98 94 87 79 69 64 60 55 50 48 44 42 44 62 71 73 79 85 89 88 89 90 88 81 76 76 79 106 103 96 95 98 95 93 88 87 89 88 87 85 81 79 76
100 101 101 96 88 78 72 66 63 59 53 49 45 40 43 62 67 75 79 84 91 93 92 92 93 89 82 75 75 73 90 104 100 98 100 96 90 91 92 89 88 87 85 83 79
107 103 99 94 86 79 74 70 66 60 56 50 46 42 47 61 72 76 81 85 89 95 98 97 93 91 86 76 63 68 71 75 94 109 100 99 98 98 94 89 88 86 86 83 80
109 103 96 90 85 79 75 71 68 63 57 53 46 45 47 58 67 75 78 83 88 94 97 96 94 88 88 82 78 78 75 75 73 89 111 99 97 101 99 95 90 85 83 81 80
107 103 94 89 86 80 76 71 69 62 55 55 53 49 53 59 65 74 78 78 85 87 95 97 91 91 93 91 87 82 75 73 75 69 75 101 104 98 93 94 93 93 91 89 88
105 99 92 87 86 81 77 73 68 60 50 63 57 56 59 65 68 74 78 80 82 87 90 94 93 99 96 96 92 86 76 76 75 68 64 70 79 90 98 98 93 88 87 87 84
102 97 91 88 86 83 80 76 70 59 52 57 54 56 57 59 66 78 77 84 83 82 87 93 99 101 97 93 98 91 83 81 77 70 70 67 59 58 65 76 92 96 92 86 81
99 95 92 89 88 86 82 76 69 60 56 51 49 46 52 51 67 73 82 84 83 80 87 83 98 97 99 92 96 94 92 87 79 73 75 65 59 58 54 50 55 67 77 83 83
98 96 93 92 90 87 84 76 69 60 57 50 47 43 46 50 56 70 78 86 87 86 83 90 96 103 97 101 99 98 96 90 83 77 70 65 59 56 52 50 49 56 64 70 75
99 98 95 93 91 88 84 76 69 63 56 47 44 40 39 45 52 61 73 83 85 79 80 86 89 99 101 102 101 99 96 95 87 79 65 66 62 56 54 49 47 49 57 64 68
100 99 96 94 91 88 83 76 68 63 54 46 40 38 35 37 45 55 68 78 82 81 80 84 89 91 100 98 101 100 96 95 89 76 66 68 58 55 58 54 50 46 54 61 63
99 99 97 94 90 87 81 74 67 61 52 43 37 37 35 34 39 48 60 73 79 83 80 79 83 90 97 99 106 103 103 97 90 84 76 70 62 59 65 59 55 50 50 56 57
101 99 96 93 90 86 79 72 66 58 48 39 35 35 35 33 35 42 52 66 76 82 82 82 84 88 96 98 97 99 105 100 93 89 81 72 69 64 68 65 61 53 50 50 60
100 97 94 91 89 84 76 71 65 55 45 37 32 32 32 33 34 41 48 59 71 81 86 88 85 87 92 93 90 94 101 101 93 89 83 76 68 67 67 67 65 60 52 48 51
98 95 92 89 86 80 73 69 61 52 43 35 30 29 28 33 36 41 47 53 63 77 87 88 84 83 87 95 95 92 98 103 99 89 83 80 74 70 69 66 65 63 56 51 50
96 92 90 88 83 76 70 66 57 49 40 33 29 26 27 31 34 38 48 52 57 69 85 89 86 85 84 92 94 89 91 96 98 97 90 89 81 75 72 69 67 65 62 54 50
94 90 88 85 79 72 67 62 55 47 38 33 28 25 25 28 33 37 43 51 55 63 75 87 87 84 80 86 93 95 87 88 96 100 91 85 84 80 73 71 70 67 64 59 53
91 88 84 82 76 71 65 59 52 46 38 32 28 25 24 27 31 36 40 47 53 57 72 82 88 86 83 85 94 94 96 91 86 86 99 90 83 83 79 75 68 68 67 63 58
88 86 83 78 73 68 64 57 50 46 37 32 27 24 23 24 28 32 37 40 49 58 69 75 86 90 88 86 87 92 97 96 86 85 89 99 90 86 83 82 78 73 69 68 62
86 83 80 75 71 66 62 55 49 42 37 31 26 22 22 21 25 29 31 36 44 54 60 63 72 81 87 87 89 88 85 93 90 88 82 87 88 90 80 83 83 78 73 68 65
Wind_Direction
335 332 331 330 327 324 318 305 295 285 273 264 257 252 245 237 233 228 227 225 223 222 216 217 219 219 221 219 221 225 224 228 228 229 229 228 228 230 232 233 235 235 239 241 242
336 332 333 331 335 326 320 310 297 289 275 266 257 253 247 241 235 229 225 226 223 223 221 219 218 220 219 222 221 222 222 224 228 228 229 230 232 231 230 231 235 236 237 240 243
332 336 334 332 332 327 321 311 301 291 278 267 259 251 247 243 236 232 229 221 225 224 222 221 221 221 221 221 222 221 220 224 226 226 227 227 233 231 231 231 232 234 237 242 243
336 335 334 333 330 328 324 313 305 295 283 271 262 253 246 241 238 232 228 225 221 224 225 223 224 222 221 220 221 221 221 223 224 224 227 228 234 233 235 235 236 236 237 240 241
335 334 336 333 332 329 323 319 311 302 289 275 264 255 249 241 237 236 230 226 224 222 224 226 222 224 221 221 220 221 222 223 225 224 226 227 228 231 238 237 239 238 241 241 242
337 336 334 332 334 329 322 318 314 304 292 279 268 260 252 243 238 232 233 228 227 222 221 223 226 224 225 221 221 221 223 224 224 225 227 228 228 229 232 232 239 238 243 241 242
339 336 333 334 332 327 323 318 314 306 296 285 271 262 254 243 240 235 231 229 227 223 221 221 223 225 223 225 223 222 224 227 225 225 228 228 229 231 234 235 237 235 239 239 239
339 338 335 332 330 327 322 317 314 308 299 289 276 261 249 246 242 237 231 229 226 225 223 224 221 221 225 223 224 224 223 225 229 227 229 230 228 230 233 235 236 237 238 240 240
339 336 333 329 328 326 323 318 315 310 301 291 278 264 247 245 244 237 233 230 228 226 224 224 222 220 218 223 223 224 227 228 226 229 229 229 229 231 233 234 236 237 238 240 243
337 332 330 327 327 325 323 319 315 309 301 291 280 270 245 238 239 235 232 229 229 226 225 224 223 221 221 217 223 228 228 229 230 226 229 230 232 235 235 235 236 237 240 241 242
333 330 329 326 326 325 323 320 315 309 303 292 279 267 254 247 240 240 235 231 229 229 227 226 223 220 220 220 221 226 225 228 229 228 228 228 233 237 236 237 237 239 240 240 243
331 328 328 327 326 324 323 320 315 310 303 291 280 268 256 246 240 237 239 232 232 229 230 228 228 223 220 218 220 221 225 227 229 228 228 229 228 232 234 238 240 242 243 244 247
330 328 328 327 327 325 323 320 316 311 300 285 282 273 259 248 239 237 235 233 229 227 227 229 223 222 221 220 219 222 222 228 229 226 228 230 229 235 236 236 237 239 243 245 247
330 329 328 328 327 327 325 323 319 312 301 290 285 273 262 250 240 237 233 234 228 228 226 223 224 222 221 219 220 220 220 225 227 223 227 229 226 230 234 237 239 239 241 242 242
329 329 329 329 328 328 326 324 320 315 307 299 288 276 265 252 237 234 231 232 230 225 226 223 223 223 221 221 221 220 221 222 223 224 226 227 226 232 234 236 237 235 235 238 240
329 329 330 329 329 329 327 326 322 320 313 305 293 279 263 250 241 235 232 230 230 223 222 222 220 221 219 218 221 221 222 221 222 221 223 228 225 231 232 235 238 235 233 234 235
329 330 331 329 330 329 328 327 325 323 315 309 297 282 266 251 240 235 229 230 231 227 223 223 221 222 219 219 218 220 222 221 221 218 218 226 227 226 233 236 238 239 234 232 233
329 330 331 329 331 330 329 328 327 323 317 311 295 284 269 253 240 234 227 229 227 225 223 221 220 221 222 220 220 218 223 223 221 219 215 220 221 219 231 231 235 236 232 228 229
329 330 331 330 330 330 329 329 328 324 318 310 296 284 271 254 242 233 229 226 225 222 223 221 219 216 219 220 218 219 220 223 221 217 216 217 219 218 227 227 232 232 232 228 226
328 330 330 330 330 330 329 329 328 324 319 310 298 285 272 255 241 233 227 226 223 221 220 221 216 217 216 221 218 219 217 220 221 218 216 216 217 216 224 226 232 233 234 230 226
327 329 330 330 330 331 330 329 328 324 320 311 298 283 272 257 240 230 224 224 222 220 220 222 219 216 217 219 218 214 219 220 220 221 216 213 216 217 221 225 228 231 232 234 230
327 329 329 329 330 330 330 329 327 324 322 313 300 284 268 256 241 227 226 221 221 221 220 223 220 217 215 214 218 214 214 215 216 220 217 214 214 218 220 223 226 230 231 233 231
327 329 328 329 329 331 331 329 326 326 323 313 301 284 267 254 244 231 222 221 220 219 218 224 222 218 213 217 216 219 215 216 216 217 218 216 215 218 220 223 226 228 231 232 233
327 328 327 329 330 331 331 330 327 328 324 315 303 287 268 251 241 232 228 221 217 217 220 223 222 220 217 214 216 212 220 217 218 217 219 220 219 217 221 225 225 227 230 231 234
328 327 327 329 330 331 331 330 329 329 323 316 307 291 269 252 241 232 227 222 219 216 218 221 222 220 216 213 216 212 215 220 216 217 218 220 220 220 220 225 227 227 228 230 232
327 326 328 329 331 331 332 331 330 327 323 317 309 294 275 259 244 235 229 222 220 217 219 218 218 221 217 215 216 216 214 215 219 219 217 218 220 219 216 222 228 229 230 230 231
326 325 328 329 330 331 331 331 330 327 321 317 311 296 277 258 244 236 231 221 219 220 222 218 221 223 220 218 215 218 217 216 217 222 220 218 219 222 219 218 227 230 231 233 232
Height
10659 10647 10636 10625 10616 10602 10592 10582 10574 10569 10563 10560 10559 10559 10561 10563 10568 10575 10578 10589 10595 10601 10608 10615 10624 10630 10637 10645 10654 10664 10685 10694 10695 10700 10707 10720 10728 10733 10744 10751 10752 10767 10766 10770 10778
10647 10635 10622 10611 10602 10594 10580 10570 10561 10553 10549 10545 10544 10543 10544 10548 10552 10558 10567 10572 10579 10585 10594 10600 10606 10613 10623 10630 10641 10653 10670 10675 10674 10685 10698 10715 10716 10723 10731 10738 10747 10753 10758 10762 10769
10637 10622 10612 10599 10588 10577 10567 10556 10546 10539 10533 10530 10527 10526 10526 10531 10537 10545 10548 10554 10563 10568 10575 10584 10590 10600 10611 10619 10632 10642 10658 10656 10662 10673 10684 10698 10695 10711 10719 10728 10732 10741 10750 10752 10761
10621 10609 10595 10585 10574 10561 10552 10541 10532 10524 10517 10512 10511 10509 10508 10513 10522 10524 10527 10536 10543 10553 10560 10566 10575 10585 10595 10607 10615 10626 10636 10639 10648 10663 10672 10681 10686 10706 10709 10716 10722 10733 10739 10741 10749
10606 10591 10580 10568 10556 10546 10534 10526 10517 10509 10502 10496 10493 10492 10493 10500 10505 10503 10509 10518 10527 10534 10543 10549 10558 10567 10578 10589 10597 10612 10618 10625 10635 10649 10653 10661 10678 10690 10692 10708 10709 10726 10724 10731 10739
10590 10577 10564 10550 10539 10527 10518 10509 10501 10492 10485 10479 10476 10476 10480 10489 10474 10489 10488 10499 10506 10514 10523 10532 10544 10550 10555 10570 10582 10594 10602 10611 10625 10636 10637 10653 10664 10673 10682 10692 10693 10712 10708 10721 10727
10573 10561 10547 10534 10523 10511 10501 10490 10483 10475 10466 10462 10458 10460 10467 10461 10455 10463 10474 10478 10484 10495 10505 10512 10520 10529 10542 10553 10569 10579 10588 10598 10613 10620 10627 10640 10653 10668 10667 10675 10681 10695 10697 10706 10715
10560 10545 10532 10518 10507 10494 10485 10473 10462 10456 10449 10443 10440 10442 10449 10437 10436 10446 10454 10458 10465 10474 10484 10492 10500 10514 10529 10539 10549 10562 10572 10587 10596 10605 10612 10626 10642 10647 10647 10661 10669 10678 10686 10694 10704
10545 10532 10517 10502 10488 10477 10468 10456 10443 10436 10429 10423 10420 10423 10427 10416 10420 10422 10430 10437 10443 10453 10462 10469 10482 10497 10506 10524 10536 10548 10564 10570 10575 10588 10597 10613 10623 10627 10633 10647 10654 10663 10674 10682 10691
10531 10517 10502 10485 10470 10459 10448 10436 10424 10416 10408 10402 10400 10401 10400 10393 10389 10394 10402 10412 10422 10430 10437 10449 10463 10481 10497 10510 10534 10536 10545 10550 10558 10570 10581 10594 10606 10607 10619 10632 10639 10651 10663 10673 10681
10517 10499 10483 10466 10452 10440 10429 10417 10405 10394 10386 10378 10379 10378 10377 10373 10375 10375 10383 10391 10401 10404 10420 10436 10447 10472 10485 10497 10503 10508 10520 10529 10537 10547 10562 10580 10588 10594 10607 10617 10631 10641 10650 10661 10665
10498 10479 10464 10446 10432 10419 10408 10398 10384 10375 10365 10352 10349 10355 10354 10349 10354 10355 10359 10375 10380 10397 10402 10413 10440 10456 10460 10473 10484 10490 10507 10519 10522 10539 10552 10560 10574 10576 10592 10606 10618 10625 10637 10646 10651
10479 10460 10444 10427 10414 10400 10388 10376 10363 10355 10349 10318 10325 10327 10323 10323 10330 10331 10339 10348 10360 10368 10384 10402 10423 10423 10438 10455 10467 10481 10495 10500 10510 10530 10540 10543 10561 10570 10580 10589 10598 10612 10621 10631 10643
10458 10440 10423 10408 10393 10380 10365 10351 10339 10332 10322 10304 10302 10296 10296 10299 10311 10306 10318 10320 10333 10354 10363 10376 10387 10404 10421 10438 10449 10463 10477 10480 10495 10517 10522 10532 10553 10558 10565 10577 10587 10600 10607 10616 10625
10437 10420 10403 10387 10375 10359 10345 10331 10317 10306 10295 10286 10275 10274 10270 10281 10274 10290 10293 10298 10314 10334 10340 10369 10372 10389 10406 10429 10433 10452 10456 10467 10480 10498 10506 10529 10545 10550 10558 10568 10575 10581 10588 10596 10607
10416 10400 10384 10366 10352 10339 10323 10308 10295 10284 10270 10262 10253 10252 10249 10253 10262 10261 10274 10277 10286 10305 10325 10335 10346 10360 10389 10399 10414 10426 10439 10455 10465 10481 10503 10520 10535 10541 10551 10556 10559 10564 10573 10583 10593
10396 10380 10364 10349 10334 10319 10304 10289 10274 10263 10252 10244 10234 10231 10232 10233 10239 10247 10256 10260 10271 10294 10312 10322 10336 10349 10365 10381 10398 10410 10425 10440 10453 10472 10503 10508 10522 10537 10538 10545 10551 10555 10562 10571 10580
10378 10362 10346 10329 10316 10301 10285 10270 10258 10246 10234 10226 10218 10214 10215 10219 10223 10230 10236 10239 10257 10275 10288 10302 10317 10336 10353 10373 10388 10404 10416 10430 10449 10472 10489 10491 10513 10528 10524 10533 10537 10543 10548 10558 10570
10362 10346 10330 10313 10299 10286 10270 10255 10243 10232 10221 10212 10205 10200 10202 10206 10209 10215 10223 10229 10242 10258 10274 10290 10307 10317 10329 10346 10361 10381 10393 10412 10435 10453 10469 10485 10499 10511 10509 10518 10523 10532 10538 10548 10558
10346 10330 10315 10299 10283 10270 10255 10241 10228 10218 10209 10200 10193 10189 10189 10193 10198 10203 10209 10218 10226 10240 10258 10268 10281 10299 10309 10320 10343 10366 10381 10392 10418 10437 10458 10474 10482 10494 10495 10506 10513 10524 10529 10538 10548
10332 10316 10301 10285 10268 10256 10241 10227 10216 10205 10196 10189 10184 10179 10177 10181 10187 10191 10197 10203 10213 10226 10239 10246 10264 10279 10295 10312 10332 10352 10366 10390 10409 10423 10445 10460 10473 10482 10485 10493 10502 10511 10521 10529 10539
10317 10303 10287 10273 10258 10244 10229 10215 10205 10194 10186 10178 10174 10170 10168 10168 10173 10180 10185 10192 10203 10212 10224 10233 10252 10268 10287 10296 10307 10329 10347 10364 10388 10412 10434 10446 10457 10466 10474 10480 10490 10500 10511 10518 10527
10302 10288 10274 10260 10246 10233 10219 10205 10193 10184 10176 10170 10164 10161 10158 10158 10163 10170 10174 10180 10190 10202 10213 10217 10235 10252 10271 10284 10303 10321 10339 10357 10377 10389 10410 10425 10441 10451 10463 10468 10479 10488 10498 10509 10517
10289 10274 10260 10247 10234 10223 10209 10195 10182 10173 10166 10160 10156 10152 10149 10150 10152 10157 10163 10170 10178 10189 10201 10208 10224 10244 10266 10284 10292 10312 10325 10344 10359 10377 10401 10417 10429 10442 10455 10460 10468 10477 10487 10499 10508
10275 10260 10249 10234 10220 10209 10199 10185 10173 10164 10157 10152 10146 10143 10141 10141 10142 10146 10151 10160 10170 10180 10185 10194 10212 10229 10247 10261 10273 10296 10311 10323 10347 10369 10382 10401 10415 10429 10443 10450 10458 10465 10475 10486 10497
10263 10247 10233 10221 10210 10198 10187 10175 10165 10154 10149 10144 10138 10134 10132 10133 10134 10137 10142 10151 10160 10165 10166 10180 10195 10211 10229 10246 10263 10280 10294 10311 10336 10348 10367 10381 10401 10407 10426 10436 10440 10451 10462 10474 10486
10247 10233 10221 10209 10198 10189 10177 10166 10156 10147 10140 10136 10131 10127 10125 10125 10126 10128 10134 10141 10148 10154 10161 10174 10187 10199 10219 10232 10244 10263 10293 10305 10322 10335 10357 10374 10392 10392 10415 10424 10429 10440 10453 10465 10476